Time,TemperatureF,DewpointF,PressureIn,WindDirection,WindDirectionDegrees,WindSpeedMPH,WindSpeedGustMPH,Humidity,HourlyPrecipIn,Conditions,Clouds,dailyrainin,SoftwareType,DateUTC
2013-03-09 00:01:00,73.8,62.0,0.00,SW,222,19.0,22.0,66,0.00,,,0.00,weatherlink.com 1.10,2013-03-09 06:01:00,
2013-03-09 00:31:00,73.9,61.0,0.00,SW,214,9.0,19.0,65,0.00,,,0.00,weatherlink.com 1.10,2013-03-09 06:31:00,
2013-03-09 00:46:00,74.0,60.0,0.00,SW,236,14.0,19.0,62,0.00,,,0.00,weatherlink.com 1.10,2013-03-09 06:46:00,
2013-03-09 01:01:00,74.1,62.0,0.00,SW,232,14.0,19.0,66,0.00,,,0.00,weatherlink.com 1.10,2013-03-09 07:01:00,
2013-03-09 01:16:00,74.1,61.0,0.00,SW,221,13.0,18.0,64,0.00,,,0.00,weatherlink.com 1.10,2013-03-09 07:16:00,
2013-03-09 01:31:00,74.1,62.0,0.00,WSW,242,14.0,18.0,66,0.00,,,0.00,weatherlink.com 1.10,2013-03-09 07:31:00,
2013-03-09 01:46:00,74.2,62.0,0.00,WSW,248,14.0,15.0,65,0.00,,,0.00,weatherlink.com 1.10,2013-03-09 07:46:00,
2013-03-09 02:01:00,74.2,60.0,0.00,WSW,249,13.0,18.0,62,0.00,,,0.00,weatherlink.com 1.10,2013-03-09 08:01:00,
2013-03-09 02:16:00,74.2,62.0,0.00,WSW,256,15.0,19.0,66,0.00,,,0.00,weatherlink.com 1.10,2013-03-09 08:16:00,
2013-03-09 02:32:00,74.3,60.0,0.00,WSW,253,14.0,17.0,61,0.00,,,0.00,weatherlink.com 1.10,2013-03-09 08:32:00,
2013-03-09 02:47:00,74.3,62.0,0.00,SW,229,15.0,16.0,65,0.00,,,0.00,weatherlink.com 1.10,2013-03-09 08:47:00,
2013-03-09 03:02:00,74.5,61.0,0.00,WSW,242,12.0,18.0,64,0.00,,,0.00,weatherlink.com 1.10,2013-03-09 09:02:00,
2013-03-09 03:17:00,74.8,62.0,0.00,WSW,245,16.0,18.0,64,0.00,,,0.00,weatherlink.com 1.10,2013-03-09 09:17:00,
2013-03-09 03:32:00,74.7,61.0,0.00,WSW,253,7.0,15.0,62,0.00,,,0.00,weatherlink.com 1.10,2013-03-09 09:32:00,
2013-03-09 03:47:00,74.9,61.0,0.00,SW,228,13.0,19.0,63,0.00,,,0.00,weatherlink.com 1.10,2013-03-09 09:47:00,
2013-03-09 04:02:00,75.1,62.0,0.00,WSW,249,11.0,17.0,64,0.00,,,0.00,weatherlink.com 1.10,2013-03-09 10:02:00,
2013-03-09 04:17:00,75.3,60.0,0.00,WSW,252,10.0,15.0,60,0.00,,,0.00,weatherlink.com 1.10,2013-03-09 10:17:00,
2013-03-09 04:32:00,75.6,63.0,0.00,WSW,237,17.0,17.0,65,0.00,,,0.00,weatherlink.com 1.10,2013-03-09 10:32:00,
2013-03-09 04:47:00,75.6,61.0,0.00,West,259,13.0,20.0,61,0.00,,,0.00,weatherlink.com 1.10,2013-03-09 10:47:00,
2013-03-09 05:02:00,75.7,62.0,0.00,WSW,238,15.0,19.0,62,0.00,,,0.00,weatherlink.com 1.10,2013-03-09 11:02:00,
2013-03-09 05:17:00,75.8,63.0,0.00,SW,233,12.0,16.0,64,0.00,,,0.00,weatherlink.com 1.10,2013-03-09 11:17:00,
2013-03-09 05:32:00,75.8,62.0,0.00,WSW,238,15.0,20.0,63,0.00,,,0.00,weatherlink.com 1.10,2013-03-09 11:32:00,
2013-03-09 05:47:00,75.9,63.0,0.00,West,260,14.0,20.0,65,0.00,,,0.00,weatherlink.com 1.10,2013-03-09 11:47:00,
2013-03-09 06:03:00,75.7,62.0,0.00,West,259,13.0,19.0,63,0.00,,,0.00,weatherlink.com 1.10,2013-03-09 12:03:00,
2013-03-09 06:18:00,75.7,60.0,0.00,WSW,249,15.0,19.0,58,0.00,,,0.00,weatherlink.com 1.10,2013-03-09 12:18:00,
2013-03-09 06:33:00,75.8,61.0,0.00,West,261,14.0,17.0,60,0.00,,,0.00,weatherlink.com 1.10,2013-03-09 12:33:00,
2013-03-09 06:48:00,76.0,60.0,0.00,WSW,256,13.0,22.0,58,0.00,,,0.00,weatherlink.com 1.10,2013-03-09 12:48:00,
2013-03-09 07:03:00,76.1,61.0,0.00,West,265,11.0,16.0,60,0.00,,,0.00,weatherlink.com 1.10,2013-03-09 13:03:00,
2013-03-09 07:18:00,76.6,62.0,0.00,WSW,248,19.0,23.0,61,0.00,,,0.00,weatherlink.com 1.10,2013-03-09 13:18:00,
2013-03-09 07:33:00,76.6,61.0,0.00,WSW,246,16.0,21.0,58,0.00,,,0.00,weatherlink.com 1.10,2013-03-09 13:33:00,
2013-03-09 07:48:00,76.7,62.0,0.00,WSW,240,16.0,19.0,61,0.00,,,0.00,weatherlink.com 1.10,2013-03-09 13:48:00,
2013-03-09 08:03:00,77.2,63.0,0.00,West,260,13.0,20.0,61,0.00,,,0.00,weatherlink.com 1.10,2013-03-09 14:03:00,
2013-03-09 08:18:00,77.1,63.0,0.00,West,265,13.0,15.0,62,0.00,,,0.00,weatherlink.com 1.10,2013-03-09 14:18:00,
2013-03-09 08:33:00,77.0,63.0,0.00,West,260,11.0,13.0,62,0.00,,,0.00,weatherlink.com 1.10,2013-03-09 14:33:00,
2013-03-09 08:48:00,76.9,63.0,0.00,West,259,11.0,13.0,63,0.00,,,0.00,weatherlink.com 1.10,2013-03-09 14:48:00,
2013-03-09 09:03:00,76.8,64.0,0.00,West,259,15.0,15.0,65,0.00,,,0.00,weatherlink.com 1.10,2013-03-09 15:03:00,
2013-03-09 09:19:00,76.7,65.0,0.00,SW,232,16.0,18.0,68,0.00,,,0.00,weatherlink.com 1.10,2013-03-09 15:19:00,
2013-03-09 09:34:00,76.7,66.0,0.00,WSW,237,18.0,19.0,69,0.00,,,0.00,weatherlink.com 1.10,2013-03-09 15:34:00,
2013-03-09 09:49:00,76.7,66.0,0.00,WSW,239,16.0,19.0,70,0.00,,,0.00,weatherlink.com 1.10,2013-03-09 15:49:00,
2013-03-09 10:04:00,76.8,66.0,0.00,WSW,237,14.0,18.0,70,0.00,,,0.00,weatherlink.com 1.10,2013-03-09 16:04:00,
2013-03-09 10:19:00,77.0,66.0,0.00,WSW,246,12.0,17.0,68,0.00,,,0.00,weatherlink.com 1.10,2013-03-09 16:19:00,
2013-03-09 10:34:00,77.0,67.0,0.00,WSW,248,12.0,15.0,70,0.00,,,0.00,weatherlink.com 1.10,2013-03-09 16:34:00,
2013-03-09 10:49:00,77.1,66.0,0.00,WSW,245,13.0,16.0,68,0.00,,,0.00,weatherlink.com 1.10,2013-03-09 16:49:00,
2013-03-09 11:04:00,77.1,64.0,0.00,WSW,242,14.0,17.0,64,0.00,,,0.00,weatherlink.com 1.10,2013-03-09 17:04:00,
2013-03-09 11:19:00,77.2,64.0,0.00,WSW,237,14.0,16.0,63,0.00,,,0.00,weatherlink.com 1.10,2013-03-09 17:19:00,
2013-03-09 11:34:00,77.2,63.0,0.00,WSW,245,15.0,17.0,62,0.00,,,0.00,weatherlink.com 1.10,2013-03-09 17:34:00,
2013-03-09 11:49:00,77.2,64.0,0.00,WSW,239,13.0,16.0,64,0.00,,,0.00,weatherlink.com 1.10,2013-03-09 17:49:00,
2013-03-09 12:04:00,77.3,65.0,0.00,WSW,237,13.0,15.0,65,0.00,,,0.00,weatherlink.com 1.10,2013-03-09 18:04:00,
2013-03-09 12:19:00,77.2,64.0,0.00,WSW,239,17.0,17.0,63,0.00,,,0.00,weatherlink.com 1.10,2013-03-09 18:19:00,